Flag for Palestinian Territories Weather past 2 weeks in Hebron, West Bank, Palestinian Territories

77 °F


Feels Like: 79 °F
Forecast: 59 / 74 °F
Wind: 3 mph from North

Location: Ben Gurion International Airport

Current Time: Oct 13, 2015 at 10:36:28 PM

Latest Report: Oct 13, 2015 at 9:50 PM

Visibility: 10 mi

Pressure: 29.95 "Hg (27.03 "Hg at 894m altitude)

Humidity: 79%

Dew point: 70 °F

Location of HebronLocation

Historic Weather in Hebron — Graph


Hebron temperature yesterday

Maximum temperature yesterday: 90 °F (at 12:50 PM)
Minimum temperature yesterday: 72 °F (at 3:20 AM)
Average temperature yesterday: 80 °F

Past Weeks' High & Low Weather Summary

High95 °F (Oct 11, 2:20 PM)94% (Oct 7, 6:50 AM)30.12 "Hg (Oct 7, 6:50 AM)
Low68 °F (Oct 7, 2:50 AM)32% (Oct 11, 12:20 PM)29.74 "Hg (Oct 7, 1:50 AM)
Average79 °F68%29.93 "Hg
* Reported Sep 28 9:20 PM — Oct 13 9:20 PM, Hebron, Weather by CustomWeather, © 2015

Note: Actual official high and low records may vary slightly from our data, if they occured in-between our weather recording intervals... More about our weather records


Hebron weather history for previous 24 hours

Time TempWeatherWind HumidityBarometerVisibility
9:20 PM
Tue, Oct 13
79 °FClear.5 mph74%29.95 "Hg10 mi
8:50 PM79 °FClear.5 mph74%29.95 "Hg10 mi
8:20 PM79 °FClear.6 mph74%29.95 "Hg10 mi
7:50 PM79 °FClear.7 mph74%29.95 "Hg10 mi
7:20 PM79 °FClear.8 mph74%29.95 "Hg10 mi
6:50 PM81 °FClear.7 mph66%29.92 "Hg10 mi
6:20 PM82 °FClear.9 mph58%29.92 "Hg10 mi
5:50 PM82 °FSunny.8 mph58%29.92 "Hg10 mi
5:20 PM84 °FSunny.9 mph55%29.92 "Hg10 mi
4:50 PM82 °FSunny.10 mph58%29.92 "Hg10 mi
4:20 PM84 °FSunny.8 mph55%29.92 "Hg10 mi
3:50 PM82 °FSunny.10 mph58%29.92 "Hg10 mi
3:20 PM84 °FSunny.12 mph58%29.92 "Hg10 mi
2:50 PM86 °FSunny.10 mph52%29.92 "Hg10 mi
2:20 PM84 °FSunny.9 mph58%29.92 "Hg10 mi
1:50 PM84 °FSunny.12 mph62%29.92 "Hg10 mi
1:20 PM86 °FSunny.9 mph55%29.92 "Hg10 mi
12:50 PM84 °FSunny.8 mph62%29.92 "Hg10 mi
12:20 PM84 °FSunny.9 mph62%29.95 "Hg10 mi
11:50 AM84 °FSunny.8 mph62%29.95 "Hg10 mi
11:20 AM82 °FSunny.6 mph62%29.95 "Hg10 mi
10:50 AM82 °FSunny.2 mph58%29.95 "Hg10 mi
10:20 AM82 °FSunny.2 mph66%29.95 "Hg10 mi
9:50 AM82 °FPassing clouds.1 mph66%29.98 "HgN/A
9:20 AM79 °FPassing clouds.5 mph74%29.98 "HgN/A
8:50 AM77 °FSunny.5 mph74%29.98 "Hg10 mi
8:20 AM75 °FSunny.3 mph78%29.98 "Hg10 mi
7:50 AM73 °FSunny.6 mph83%29.95 "Hg10 mi
7:20 AM72 °FClear.1 mph88%29.95 "Hg6 mi
6:20 AM73 °FClear.5 mph83%29.95 "Hg10 mi
5:50 AM73 °FClear.5 mph89%29.95 "Hg10 mi
5:20 AM73 °FClear.2 mph89%29.95 "Hg10 mi
4:50 AM72 °FClear.1 mph94%29.95 "Hg10 mi
4:20 AM75 °FClear.2 mph83%29.95 "Hg10 mi
3:50 AM75 °FClear.3 mph78%29.95 "Hg10 mi
3:20 AM75 °FClear.5 mph89%29.95 "Hg10 mi
2:50 AM75 °FClear.3 mph83%29.95 "Hg10 mi
2:20 AM75 °FClear.2 mph89%29.95 "Hg10 mi
1:50 AM75 °FClear.1 mph89%29.95 "Hg10 mi
1:20 AM77 °FClear.2 mph83%29.95 "Hg10 mi
12:50 AM77 °FClear.2 mph83%29.95 "Hg10 mi
12:20 AM77 °FClear.2 mph83%29.95 "Hg10 mi
11:50 PM
Mon, Oct 12
79 °FClear.2 mph74%29.95 "Hg10 mi
11:20 PM79 °FClear.2 mph79%29.95 "Hg10 mi
10:50 PM79 °FClear.3 mph79%29.95 "Hg10 mi
10:20 PM79 °FClear.6 mph79%29.95 "Hg10 mi
Weather by CustomWeather, © 2015

See weather overviewHow to use our weather pages